This is the latest recevied weather packets stored in our database for station/object AI4Y. If no packets are shown the sender has not sent any weather packets the latest 10 day(s).
| Time | Temp. | Humidity | Pressure | Rain* | Wind** | Luminosity | Snow |
|---|---|---|---|---|---|---|---|
| 1777897816 | 13.89° C | 58% | 1016.2 hPa | 0 mm | - | 237 W/m² | - |
| 1777896616 | 10° C | 82% | 1016.4 hPa | 0 mm | - | 185 W/m² | - |
| 1777893617 | 8.33° C | 89% | 1016.2 hPa | 0 mm | - | 36 W/m² | - |
| 1777891218 | 7.22° C | 92% | 1016.3 hPa | 0 mm | - | 5 W/m² | - |
| 1777890018 | 6.67° C | 92% | 1016.4 hPa | 0 mm | - | 1 W/m² | - |
| 1777886418 | 6.67° C | 92% | 1016.4 hPa | 0 mm | - | 0 W/m² | - |
| 1777885216 | 6.67° C | 92% | 1016.2 hPa | 0 mm | - | 0 W/m² | - |
| 1777884638 | 6.67° C | 91% | 1016.1 hPa | 0 mm | - | 0 W/m² | - |
| 1777881017 | 6.11° C | 89% | 1016.4 hPa | 0 mm | - | 0 W/m² | - |
| 1777878018 | 7.78° C | 84% | 1016.7 hPa | 0 mm | - | 0 W/m² | - |
| 1777876218 | 7.78° C | 85% | 1016.6 hPa | 0 mm | - | 0 W/m² | - |
| 1777874416 | 7.22° C | 85% | 1016.6 hPa | 0 mm | - | 0 W/m² | - |
| 1777872636 | 7.22° C | 83% | 1016.8 hPa | 0 mm | - | 0 W/m² | - |
| 1777865418 | 6.11° C | 80% | 1016.6 hPa | 0 mm | - | 0 W/m² | - |
| 1777855217 | 12.78° C | 48% | 1015.5 hPa | 0 mm | - | 0 W/m² | - |
| 1777852818 | 17.22° C | 34% | 1015.5 hPa | 0 mm | - | 16 W/m² | - |
| 1777849239 | 20° C | 27% | 1015 hPa | 0 mm | - | 195 W/m² | - |
| 1777848017 | 20° C | 26% | 1015.1 hPa | 0 mm | - | 270 W/m² | - |
| 1777842617 | 20° C | 28% | 1015.7 hPa | 0 mm | - | 594 W/m² | - |
| 1777841418 | 19.44° C | 28% | 1015.8 hPa | 0 mm | - | 658 W/m² | - |
| 1777840218 | 19.44° C | 30% | 1015.8 hPa | 0 mm | - | 722 W/m² | - |
| 1777834816 | 17.78° C | 32% | 1017.1 hPa | 0 mm | - | 921 W/m² | - |
| 1777828218 | 15° C | 37% | 1018.5 hPa | 0 mm | - | 968 W/m² | - |
| 1777826418 | 14.44° C | 38% | 1019 hPa | 0 mm | - | 938 W/m² | - |
| 1777824016 | 13.33° C | 41% | 1019.5 hPa | 0 mm | - | 872 W/m² | - |
* Rain latest hour (hover to see other rain measurements)
** Current wind speed in m/s (hover to see current wind gust speed)